<?xml version="1.0" encoding="utf-8"?>
<gpx xmlns:xsi="http://www.w3.org/2001/XMLSchema-instance" xmlns:xsd="http://www.w3.org/2001/XMLSchema" version="1.1" creator="Shapelink.com" xmlns="http://www.topografix.com/GPX/1/1" xmlns:gpxtpx="http://www.garmin.com/xmlschemas/TrackPointExtension/v1">
  <metadata>
    <name>Walking 4.84 km, 2025-11-10</name>
    <desc></desc>
    <author><name>Urban Kalla</name></author> 
    <time>1970-01-01T01:00:00Z</time>
  </metadata>
  <trk>
    <name>Walking 4.84 km, 2025-11-10</name>
    <trkseg>
      <trkpt lat="67.3402" lon="22.227343">
        <ele>234</ele>
        <time>1970-01-01T01:00:00Z</time>
      </trkpt>
      <trkpt lat="67.34017" lon="22.227386">
        <ele>234</ele>
        <time>1970-01-01T01:00:00Z</time>
      </trkpt>
      <trkpt lat="67.34017" lon="22.227383">
        <ele>234</ele>
        <time>1970-01-01T01:00:00Z</time>
      </trkpt>
      <trkpt lat="67.34011" lon="22.22754">
        <ele>235</ele>
        <time>1970-01-01T01:00:00Z</time>
      </trkpt>
      <trkpt lat="67.34011" lon="22.227772">
        <ele>235.125</ele>
        <time>1970-01-01T01:00:00Z</time>
      </trkpt>
      <trkpt lat="67.340126" lon="22.227982">
        <ele>235.222</ele>
        <time>1970-01-01T01:00:00Z</time>
      </trkpt>
      <trkpt lat="67.34007" lon="22.228172">
        <ele>235.3</ele>
        <time>1970-01-01T01:00:00Z</time>
      </trkpt>
      <trkpt lat="67.34" lon="22.228233">
        <ele>235.364</ele>
        <time>1970-01-01T01:00:00Z</time>
      </trkpt>
      <trkpt lat="67.33991" lon="22.228281">
        <ele>235.455</ele>
        <time>1970-01-01T01:00:00Z</time>
      </trkpt>
      <trkpt lat="67.33983" lon="22.228329">
        <ele>235.545</ele>
        <time>1970-01-01T01:00:00Z</time>
      </trkpt>
      <trkpt lat="67.339745" lon="22.228369">
        <ele>235.636</ele>
        <time>1970-01-01T01:00:00Z</time>
      </trkpt>
      <trkpt lat="67.33966" lon="22.228388">
        <ele>235.727</ele>
        <time>1970-01-01T01:00:00Z</time>
      </trkpt>
      <trkpt lat="67.33957" lon="22.228405">
        <ele>235.818</ele>
        <time>1970-01-01T01:00:00Z</time>
      </trkpt>
      <trkpt lat="67.33948" lon="22.228445">
        <ele>235.818</ele>
        <time>1970-01-01T01:00:00Z</time>
      </trkpt>
      <trkpt lat="67.3394" lon="22.228563">
        <ele>235.818</ele>
        <time>1970-01-01T01:00:00Z</time>
      </trkpt>
      <trkpt lat="67.33941" lon="22.2288">
        <ele>235.636</ele>
        <time>1970-01-01T01:00:00Z</time>
      </trkpt>
      <trkpt lat="67.33945" lon="22.229006">
        <ele>235.455</ele>
        <time>1970-01-01T01:00:00Z</time>
      </trkpt>
      <trkpt lat="67.339485" lon="22.22921">
        <ele>235.273</ele>
        <time>1970-01-01T01:00:00Z</time>
      </trkpt>
      <trkpt lat="67.33952" lon="22.22943">
        <ele>235.091</ele>
        <time>1970-01-01T01:00:00Z</time>
      </trkpt>
      <trkpt lat="67.339554" lon="22.229635">
        <ele>234.909</ele>
        <time>1970-01-01T01:00:00Z</time>
      </trkpt>
      <trkpt lat="67.339584" lon="22.22986">
        <ele>234.727</ele>
        <time>1970-01-01T01:00:00Z</time>
      </trkpt>
      <trkpt lat="67.339554" lon="22.230074">
        <ele>234.545</ele>
        <time>1970-01-01T01:00:00Z</time>
      </trkpt>
      <trkpt lat="67.33952" lon="22.230288">
        <ele>234.364</ele>
        <time>1970-01-01T01:00:00Z</time>
      </trkpt>
      <trkpt lat="67.33949" lon="22.230492">
        <ele>234.182</ele>
        <time>1970-01-01T01:00:00Z</time>
      </trkpt>
      <trkpt lat="67.339455" lon="22.230673">
        <ele>234</ele>
        <time>1970-01-01T01:00:00Z</time>
      </trkpt>
      <trkpt lat="67.339386" lon="22.230824">
        <ele>233.818</ele>
        <time>1970-01-01T01:00:00Z</time>
      </trkpt>
      <trkpt lat="67.33931" lon="22.230946">
        <ele>233.727</ele>
        <time>1970-01-01T01:00:00Z</time>
      </trkpt>
      <trkpt lat="67.33923" lon="22.231052">
        <ele>233.545</ele>
        <time>1970-01-01T01:00:00Z</time>
      </trkpt>
      <trkpt lat="67.33917" lon="22.231215">
        <ele>233.364</ele>
        <time>1970-01-01T01:00:00Z</time>
      </trkpt>
      <trkpt lat="67.339134" lon="22.231401">
        <ele>233.091</ele>
        <time>1970-01-01T01:00:00Z</time>
      </trkpt>
      <trkpt lat="67.33909" lon="22.231604">
        <ele>232.818</ele>
        <time>1970-01-01T01:00:00Z</time>
      </trkpt>
      <trkpt lat="67.339035" lon="22.231783">
        <ele>232.545</ele>
        <time>1970-01-01T01:00:00Z</time>
      </trkpt>
      <trkpt lat="67.33901" lon="22.232004">
        <ele>232.182</ele>
        <time>1970-01-01T01:00:00Z</time>
      </trkpt>
      <trkpt lat="67.33902" lon="22.232235">
        <ele>231.818</ele>
        <time>1970-01-01T01:00:00Z</time>
      </trkpt>
      <trkpt lat="67.33905" lon="22.232456">
        <ele>231.455</ele>
        <time>1970-01-01T01:00:00Z</time>
      </trkpt>
      <trkpt lat="67.33905" lon="22.232674">
        <ele>231.182</ele>
        <time>1970-01-01T01:00:00Z</time>
      </trkpt>
      <trkpt lat="67.33898" lon="22.232836">
        <ele>230.818</ele>
        <time>1970-01-01T01:00:00Z</time>
      </trkpt>
      <trkpt lat="67.33892" lon="22.23298">
        <ele>230.455</ele>
        <time>1970-01-01T01:00:00Z</time>
      </trkpt>
      <trkpt lat="67.338875" lon="22.23316">
        <ele>230.182</ele>
        <time>1970-01-01T01:00:00Z</time>
      </trkpt>
      <trkpt lat="67.33882" lon="22.233343">
        <ele>229.818</ele>
        <time>1970-01-01T01:00:00Z</time>
      </trkpt>
      <trkpt lat="67.33876" lon="22.233522">
        <ele>229.545</ele>
        <time>1970-01-01T01:00:00Z</time>
      </trkpt>
      <trkpt lat="67.3387" lon="22.233692">
        <ele>229.182</ele>
        <time>1970-01-01T01:00:00Z</time>
      </trkpt>
      <trkpt lat="67.33864" lon="22.233831">
        <ele>228.727</ele>
        <time>1970-01-01T01:00:00Z</time>
      </trkpt>
      <trkpt lat="67.33857" lon="22.233957">
        <ele>228.364</ele>
        <time>1970-01-01T01:00:00Z</time>
      </trkpt>
      <trkpt lat="67.3385" lon="22.234127">
        <ele>228</ele>
        <time>1970-01-01T01:00:00Z</time>
      </trkpt>
      <trkpt lat="67.33844" lon="22.234278">
        <ele>227.545</ele>
        <time>1970-01-01T01:00:00Z</time>
      </trkpt>
      <trkpt lat="67.33839" lon="22.234463">
        <ele>227</ele>
        <time>1970-01-01T01:00:00Z</time>
      </trkpt>
      <trkpt lat="67.338356" lon="22.234655">
        <ele>226.455</ele>
        <time>1970-01-01T01:00:00Z</time>
      </trkpt>
      <trkpt lat="67.33836" lon="22.234879">
        <ele>225.909</ele>
        <time>1970-01-01T01:00:00Z</time>
      </trkpt>
      <trkpt lat="67.338394" lon="22.235094">
        <ele>225.273</ele>
        <time>1970-01-01T01:00:00Z</time>
      </trkpt>
      <trkpt lat="67.338425" lon="22.235294">
        <ele>224.636</ele>
        <time>1970-01-01T01:00:00Z</time>
      </trkpt>
      <trkpt lat="67.33847" lon="22.235502">
        <ele>223.909</ele>
        <time>1970-01-01T01:00:00Z</time>
      </trkpt>
      <trkpt lat="67.3385" lon="22.235718">
        <ele>223.273</ele>
        <time>1970-01-01T01:00:00Z</time>
      </trkpt>
      <trkpt lat="67.33853" lon="22.235931">
        <ele>222.636</ele>
        <time>1970-01-01T01:00:00Z</time>
      </trkpt>
      <trkpt lat="67.33854" lon="22.236143">
        <ele>221.909</ele>
        <time>1970-01-01T01:00:00Z</time>
      </trkpt>
      <trkpt lat="67.33856" lon="22.236368">
        <ele>221.182</ele>
        <time>1970-01-01T01:00:00Z</time>
      </trkpt>
      <trkpt lat="67.33859" lon="22.236578">
        <ele>220.455</ele>
        <time>1970-01-01T01:00:00Z</time>
      </trkpt>
      <trkpt lat="67.33864" lon="22.23677">
        <ele>219.818</ele>
        <time>1970-01-01T01:00:00Z</time>
      </trkpt>
      <trkpt lat="67.33869" lon="22.236961">
        <ele>219.182</ele>
        <time>1970-01-01T01:00:00Z</time>
      </trkpt>
      <trkpt lat="67.33875" lon="22.237125">
        <ele>218.545</ele>
        <time>1970-01-01T01:00:00Z</time>
      </trkpt>
      <trkpt lat="67.33882" lon="22.237265">
        <ele>217.909</ele>
        <time>1970-01-01T01:00:00Z</time>
      </trkpt>
      <trkpt lat="67.33889" lon="22.237415">
        <ele>217.273</ele>
        <time>1970-01-01T01:00:00Z</time>
      </trkpt>
      <trkpt lat="67.33895" lon="22.237577">
        <ele>216.727</ele>
        <time>1970-01-01T01:00:00Z</time>
      </trkpt>
      <trkpt lat="67.33901" lon="22.237743">
        <ele>216.091</ele>
        <time>1970-01-01T01:00:00Z</time>
      </trkpt>
      <trkpt lat="67.33908" lon="22.237894">
        <ele>215.545</ele>
        <time>1970-01-01T01:00:00Z</time>
      </trkpt>
      <trkpt lat="67.339134" lon="22.238045">
        <ele>215</ele>
        <time>1970-01-01T01:00:00Z</time>
      </trkpt>
      <trkpt lat="67.33919" lon="22.238222">
        <ele>214.455</ele>
        <time>1970-01-01T01:00:00Z</time>
      </trkpt>
      <trkpt lat="67.339226" lon="22.238407">
        <ele>214</ele>
        <time>1970-01-01T01:00:00Z</time>
      </trkpt>
      <trkpt lat="67.33927" lon="22.238611">
        <ele>213.455</ele>
        <time>1970-01-01T01:00:00Z</time>
      </trkpt>
      <trkpt lat="67.339325" lon="22.238804">
        <ele>213</ele>
        <time>1970-01-01T01:00:00Z</time>
      </trkpt>
      <trkpt lat="67.339386" lon="22.238941">
        <ele>212.455</ele>
        <time>1970-01-01T01:00:00Z</time>
      </trkpt>
      <trkpt lat="67.33947" lon="22.239052">
        <ele>212</ele>
        <time>1970-01-01T01:00:00Z</time>
      </trkpt>
      <trkpt lat="67.33955" lon="22.239136">
        <ele>211.545</ele>
        <time>1970-01-01T01:00:00Z</time>
      </trkpt>
      <trkpt lat="67.339615" lon="22.239252">
        <ele>211</ele>
        <time>1970-01-01T01:00:00Z</time>
      </trkpt>
      <trkpt lat="67.33967" lon="22.23942">
        <ele>210.545</ele>
        <time>1970-01-01T01:00:00Z</time>
      </trkpt>
      <trkpt lat="67.33969" lon="22.239643">
        <ele>210.091</ele>
        <time>1970-01-01T01:00:00Z</time>
      </trkpt>
      <trkpt lat="67.33968" lon="22.23988">
        <ele>209.636</ele>
        <time>1970-01-01T01:00:00Z</time>
      </trkpt>
      <trkpt lat="67.33966" lon="22.240097">
        <ele>209.182</ele>
        <time>1970-01-01T01:00:00Z</time>
      </trkpt>
      <trkpt lat="67.33963" lon="22.240324">
        <ele>208.727</ele>
        <time>1970-01-01T01:00:00Z</time>
      </trkpt>
      <trkpt lat="67.33959" lon="22.240515">
        <ele>208.364</ele>
        <time>1970-01-01T01:00:00Z</time>
      </trkpt>
      <trkpt lat="67.33956" lon="22.240736">
        <ele>208.091</ele>
        <time>1970-01-01T01:00:00Z</time>
      </trkpt>
      <trkpt lat="67.33954" lon="22.240965">
        <ele>207.818</ele>
        <time>1970-01-01T01:00:00Z</time>
      </trkpt>
      <trkpt lat="67.339516" lon="22.241173">
        <ele>207.545</ele>
        <time>1970-01-01T01:00:00Z</time>
      </trkpt>
      <trkpt lat="67.339485" lon="22.24136">
        <ele>207.455</ele>
        <time>1970-01-01T01:00:00Z</time>
      </trkpt>
      <trkpt lat="67.33943" lon="22.241531">
        <ele>207.545</ele>
        <time>1970-01-01T01:00:00Z</time>
      </trkpt>
      <trkpt lat="67.33937" lon="22.241669">
        <ele>207.636</ele>
        <time>1970-01-01T01:00:00Z</time>
      </trkpt>
      <trkpt lat="67.3393" lon="22.241817">
        <ele>207.818</ele>
        <time>1970-01-01T01:00:00Z</time>
      </trkpt>
      <trkpt lat="67.33924" lon="22.241955">
        <ele>208.182</ele>
        <time>1970-01-01T01:00:00Z</time>
      </trkpt>
      <trkpt lat="67.339165" lon="22.242092">
        <ele>208.636</ele>
        <time>1970-01-01T01:00:00Z</time>
      </trkpt>
      <trkpt lat="67.339096" lon="22.242254">
        <ele>209.091</ele>
        <time>1970-01-01T01:00:00Z</time>
      </trkpt>
      <trkpt lat="67.33902" lon="22.242369">
        <ele>209.636</ele>
        <time>1970-01-01T01:00:00Z</time>
      </trkpt>
      <trkpt lat="67.338936" lon="22.24238">
        <ele>210.091</ele>
        <time>1970-01-01T01:00:00Z</time>
      </trkpt>
      <trkpt lat="67.33885" lon="22.242275">
        <ele>210.727</ele>
        <time>1970-01-01T01:00:00Z</time>
      </trkpt>
      <trkpt lat="67.338776" lon="22.242147">
        <ele>211.364</ele>
        <time>1970-01-01T01:00:00Z</time>
      </trkpt>
      <trkpt lat="67.338715" lon="22.242008">
        <ele>212</ele>
        <time>1970-01-01T01:00:00Z</time>
      </trkpt>
      <trkpt lat="67.338646" lon="22.241879">
        <ele>212.455</ele>
        <time>1970-01-01T01:00:00Z</time>
      </trkpt>
      <trkpt lat="67.33858" lon="22.241737">
        <ele>212.909</ele>
        <time>1970-01-01T01:00:00Z</time>
      </trkpt>
      <trkpt lat="67.33851" lon="22.241611">
        <ele>213.364</ele>
        <time>1970-01-01T01:00:00Z</time>
      </trkpt>
      <trkpt lat="67.33845" lon="22.241476">
        <ele>213.727</ele>
        <time>1970-01-01T01:00:00Z</time>
      </trkpt>
      <trkpt lat="67.33837" lon="22.241346">
        <ele>214</ele>
        <time>1970-01-01T01:00:00Z</time>
      </trkpt>
      <trkpt lat="67.338295" lon="22.241217">
        <ele>214.273</ele>
        <time>1970-01-01T01:00:00Z</time>
      </trkpt>
      <trkpt lat="67.33822" lon="22.241138">
        <ele>214.455</ele>
        <time>1970-01-01T01:00:00Z</time>
      </trkpt>
      <trkpt lat="67.33814" lon="22.241053">
        <ele>214.636</ele>
        <time>1970-01-01T01:00:00Z</time>
      </trkpt>
      <trkpt lat="67.338066" lon="22.240938">
        <ele>214.727</ele>
        <time>1970-01-01T01:00:00Z</time>
      </trkpt>
      <trkpt lat="67.338" lon="22.2408">
        <ele>214.909</ele>
        <time>1970-01-01T01:00:00Z</time>
      </trkpt>
      <trkpt lat="67.33793" lon="22.240671">
        <ele>215</ele>
        <time>1970-01-01T01:00:00Z</time>
      </trkpt>
      <trkpt lat="67.337845" lon="22.240578">
        <ele>215.182</ele>
        <time>1970-01-01T01:00:00Z</time>
      </trkpt>
      <trkpt lat="67.33776" lon="22.240583">
        <ele>215.364</ele>
        <time>1970-01-01T01:00:00Z</time>
      </trkpt>
      <trkpt lat="67.337685" lon="22.240679">
        <ele>215.545</ele>
        <time>1970-01-01T01:00:00Z</time>
      </trkpt>
      <trkpt lat="67.33762" lon="22.240822">
        <ele>215.727</ele>
        <time>1970-01-01T01:00:00Z</time>
      </trkpt>
      <trkpt lat="67.337555" lon="22.240953">
        <ele>215.909</ele>
        <time>1970-01-01T01:00:00Z</time>
      </trkpt>
      <trkpt lat="67.33747" lon="22.241001">
        <ele>216.091</ele>
        <time>1970-01-01T01:00:00Z</time>
      </trkpt>
      <trkpt lat="67.33739" lon="22.241062">
        <ele>216.364</ele>
        <time>1970-01-01T01:00:00Z</time>
      </trkpt>
      <trkpt lat="67.33731" lon="22.241173">
        <ele>216.636</ele>
        <time>1970-01-01T01:00:00Z</time>
      </trkpt>
      <trkpt lat="67.33724" lon="22.241314">
        <ele>216.909</ele>
        <time>1970-01-01T01:00:00Z</time>
      </trkpt>
      <trkpt lat="67.33718" lon="22.241459">
        <ele>217.091</ele>
        <time>1970-01-01T01:00:00Z</time>
      </trkpt>
      <trkpt lat="67.33712" lon="22.24161">
        <ele>217.364</ele>
        <time>1970-01-01T01:00:00Z</time>
      </trkpt>
      <trkpt lat="67.33706" lon="22.241755">
        <ele>217.636</ele>
        <time>1970-01-01T01:00:00Z</time>
      </trkpt>
      <trkpt lat="67.337" lon="22.241913">
        <ele>217.909</ele>
        <time>1970-01-01T01:00:00Z</time>
      </trkpt>
      <trkpt lat="67.33694" lon="22.242071">
        <ele>218.091</ele>
        <time>1970-01-01T01:00:00Z</time>
      </trkpt>
      <trkpt lat="67.33687" lon="22.242195">
        <ele>218.273</ele>
        <time>1970-01-01T01:00:00Z</time>
      </trkpt>
      <trkpt lat="67.33679" lon="22.242346">
        <ele>218.455</ele>
        <time>1970-01-01T01:00:00Z</time>
      </trkpt>
      <trkpt lat="67.33673" lon="22.242481">
        <ele>218.727</ele>
        <time>1970-01-01T01:00:00Z</time>
      </trkpt>
      <trkpt lat="67.33667" lon="22.242653">
        <ele>218.909</ele>
        <time>1970-01-01T01:00:00Z</time>
      </trkpt>
      <trkpt lat="67.336624" lon="22.242838">
        <ele>219.182</ele>
        <time>1970-01-01T01:00:00Z</time>
      </trkpt>
      <trkpt lat="67.33659" lon="22.24304">
        <ele>219.455</ele>
        <time>1970-01-01T01:00:00Z</time>
      </trkpt>
      <trkpt lat="67.33655" lon="22.24321">
        <ele>219.727</ele>
        <time>1970-01-01T01:00:00Z</time>
      </trkpt>
      <trkpt lat="67.33649" lon="22.243366">
        <ele>219.909</ele>
        <time>1970-01-01T01:00:00Z</time>
      </trkpt>
      <trkpt lat="67.336426" lon="22.243511">
        <ele>220.091</ele>
        <time>1970-01-01T01:00:00Z</time>
      </trkpt>
      <trkpt lat="67.336365" lon="22.243666">
        <ele>220.273</ele>
        <time>1970-01-01T01:00:00Z</time>
      </trkpt>
      <trkpt lat="67.3363" lon="22.243824">
        <ele>220.455</ele>
        <time>1970-01-01T01:00:00Z</time>
      </trkpt>
      <trkpt lat="67.33625" lon="22.243992">
        <ele>220.545</ele>
        <time>1970-01-01T01:00:00Z</time>
      </trkpt>
      <trkpt lat="67.336205" lon="22.244165">
        <ele>220.636</ele>
        <time>1970-01-01T01:00:00Z</time>
      </trkpt>
      <trkpt lat="67.336136" lon="22.244308">
        <ele>220.636</ele>
        <time>1970-01-01T01:00:00Z</time>
      </trkpt>
      <trkpt lat="67.33606" lon="22.244415">
        <ele>220.636</ele>
        <time>1970-01-01T01:00:00Z</time>
      </trkpt>
      <trkpt lat="67.33598" lon="22.244516">
        <ele>220.455</ele>
        <time>1970-01-01T01:00:00Z</time>
      </trkpt>
      <trkpt lat="67.3359" lon="22.244505">
        <ele>220.273</ele>
        <time>1970-01-01T01:00:00Z</time>
      </trkpt>
      <trkpt lat="67.33583" lon="22.244377">
        <ele>220.091</ele>
        <time>1970-01-01T01:00:00Z</time>
      </trkpt>
      <trkpt lat="67.33577" lon="22.24421">
        <ele>219.818</ele>
        <time>1970-01-01T01:00:00Z</time>
      </trkpt>
      <trkpt lat="67.3357" lon="22.244093">
        <ele>219.545</ele>
        <time>1970-01-01T01:00:00Z</time>
      </trkpt>
      <trkpt lat="67.335625" lon="22.243988">
        <ele>219.273</ele>
        <time>1970-01-01T01:00:00Z</time>
      </trkpt>
      <trkpt lat="67.33554" lon="22.24392">
        <ele>219</ele>
        <time>1970-01-01T01:00:00Z</time>
      </trkpt>
      <trkpt lat="67.33546" lon="22.2439">
        <ele>218.727</ele>
        <time>1970-01-01T01:00:00Z</time>
      </trkpt>
      <trkpt lat="67.33537" lon="22.24396">
        <ele>218.455</ele>
        <time>1970-01-01T01:00:00Z</time>
      </trkpt>
      <trkpt lat="67.335304" lon="22.24409">
        <ele>218.182</ele>
        <time>1970-01-01T01:00:00Z</time>
      </trkpt>
      <trkpt lat="67.335236" lon="22.244226">
        <ele>217.909</ele>
        <time>1970-01-01T01:00:00Z</time>
      </trkpt>
      <trkpt lat="67.335175" lon="22.244366">
        <ele>217.727</ele>
        <time>1970-01-01T01:00:00Z</time>
      </trkpt>
      <trkpt lat="67.335106" lon="22.244522">
        <ele>217.545</ele>
        <time>1970-01-01T01:00:00Z</time>
      </trkpt>
      <trkpt lat="67.335045" lon="22.244665">
        <ele>217.364</ele>
        <time>1970-01-01T01:00:00Z</time>
      </trkpt>
      <trkpt lat="67.33498" lon="22.244812">
        <ele>217.273</ele>
        <time>1970-01-01T01:00:00Z</time>
      </trkpt>
      <trkpt lat="67.334915" lon="22.244982">
        <ele>217.182</ele>
        <time>1970-01-01T01:00:00Z</time>
      </trkpt>
      <trkpt lat="67.334885" lon="22.245184">
        <ele>217</ele>
        <time>1970-01-01T01:00:00Z</time>
      </trkpt>
      <trkpt lat="67.33492" lon="22.245377">
        <ele>216.909</ele>
        <time>1970-01-01T01:00:00Z</time>
      </trkpt>
      <trkpt lat="67.33497" lon="22.245552">
        <ele>216.909</ele>
        <time>1970-01-01T01:00:00Z</time>
      </trkpt>
      <trkpt lat="67.33502" lon="22.24574">
        <ele>216.909</ele>
        <time>1970-01-01T01:00:00Z</time>
      </trkpt>
      <trkpt lat="67.33506" lon="22.245932">
        <ele>216.909</ele>
        <time>1970-01-01T01:00:00Z</time>
      </trkpt>
      <trkpt lat="67.33511" lon="22.246101">
        <ele>216.909</ele>
        <time>1970-01-01T01:00:00Z</time>
      </trkpt>
      <trkpt lat="67.33516" lon="22.246296">
        <ele>216.9</ele>
        <time>1970-01-01T01:00:00Z</time>
      </trkpt>
      <trkpt lat="67.335205" lon="22.246498">
        <ele>216.889</ele>
        <time>1970-01-01T01:00:00Z</time>
      </trkpt>
      <trkpt lat="67.33529" lon="22.246529">
        <ele>216.875</ele>
        <time>1970-01-01T01:00:00Z</time>
      </trkpt>
      <trkpt lat="67.33537" lon="22.246517">
        <ele>216.857</ele>
        <time>1970-01-01T01:00:00Z</time>
      </trkpt>
      <trkpt lat="67.33539" lon="22.246511">
        <ele>216.833</ele>
        <time>1970-01-01T01:00:00Z</time>
      </trkpt>
      <trkpt lat="67.33529" lon="22.246532">
        <ele>217</ele>
        <time>1970-01-01T01:00:00Z</time>
      </trkpt>
      <trkpt lat="67.335266" lon="22.246696">
        <ele>217</ele>
        <time>1970-01-01T01:00:00Z</time>
      </trkpt>
      <trkpt lat="67.33521" lon="22.246708">
        <ele>215.857</ele>
        <time>1970-01-01T01:00:00Z</time>
      </trkpt>
      <trkpt lat="67.33515" lon="22.24687">
        <ele>215.75</ele>
        <time>1970-01-01T01:00:00Z</time>
      </trkpt>
      <trkpt lat="67.3351" lon="22.24703">
        <ele>215.667</ele>
        <time>1970-01-01T01:00:00Z</time>
      </trkpt>
      <trkpt lat="67.335045" lon="22.247202">
        <ele>215.6</ele>
        <time>1970-01-01T01:00:00Z</time>
      </trkpt>
      <trkpt lat="67.334984" lon="22.24736">
        <ele>215.545</ele>
        <time>1970-01-01T01:00:00Z</time>
      </trkpt>
      <trkpt lat="67.33491" lon="22.247456">
        <ele>215.364</ele>
        <time>1970-01-01T01:00:00Z</time>
      </trkpt>
      <trkpt lat="67.334816" lon="22.24746">
        <ele>215.182</ele>
        <time>1970-01-01T01:00:00Z</time>
      </trkpt>
      <trkpt lat="67.33474" lon="22.24747">
        <ele>215.091</ele>
        <time>1970-01-01T01:00:00Z</time>
      </trkpt>
      <trkpt lat="67.334656" lon="22.247547">
        <ele>215</ele>
        <time>1970-01-01T01:00:00Z</time>
      </trkpt>
      <trkpt lat="67.33457" lon="22.247637">
        <ele>215</ele>
        <time>1970-01-01T01:00:00Z</time>
      </trkpt>
      <trkpt lat="67.3345" lon="22.247744">
        <ele>215</ele>
        <time>1970-01-01T01:00:00Z</time>
      </trkpt>
      <trkpt lat="67.33442" lon="22.247826">
        <ele>215</ele>
        <time>1970-01-01T01:00:00Z</time>
      </trkpt>
      <trkpt lat="67.33434" lon="22.24792">
        <ele>215</ele>
        <time>1970-01-01T01:00:00Z</time>
      </trkpt>
      <trkpt lat="67.33426" lon="22.247995">
        <ele>215</ele>
        <time>1970-01-01T01:00:00Z</time>
      </trkpt>
      <trkpt lat="67.334175" lon="22.248058">
        <ele>215</ele>
        <time>1970-01-01T01:00:00Z</time>
      </trkpt>
      <trkpt lat="67.33409" lon="22.24814">
        <ele>215</ele>
        <time>1970-01-01T01:00:00Z</time>
      </trkpt>
      <trkpt lat="67.334015" lon="22.24824">
        <ele>215</ele>
        <time>1970-01-01T01:00:00Z</time>
      </trkpt>
      <trkpt lat="67.33395" lon="22.248358">
        <ele>215</ele>
        <time>1970-01-01T01:00:00Z</time>
      </trkpt>
      <trkpt lat="67.33387" lon="22.248459">
        <ele>215</ele>
        <time>1970-01-01T01:00:00Z</time>
      </trkpt>
      <trkpt lat="67.333786" lon="22.248537">
        <ele>215</ele>
        <time>1970-01-01T01:00:00Z</time>
      </trkpt>
      <trkpt lat="67.3337" lon="22.24857">
        <ele>215</ele>
        <time>1970-01-01T01:00:00Z</time>
      </trkpt>
      <trkpt lat="67.33362" lon="22.24854">
        <ele>215</ele>
        <time>1970-01-01T01:00:00Z</time>
      </trkpt>
      <trkpt lat="67.33353" lon="22.24852">
        <ele>215</ele>
        <time>1970-01-01T01:00:00Z</time>
      </trkpt>
      <trkpt lat="67.33344" lon="22.248495">
        <ele>215</ele>
        <time>1970-01-01T01:00:00Z</time>
      </trkpt>
      <trkpt lat="67.33336" lon="22.248518">
        <ele>215</ele>
        <time>1970-01-01T01:00:00Z</time>
      </trkpt>
      <trkpt lat="67.333275" lon="22.248516">
        <ele>215</ele>
        <time>1970-01-01T01:00:00Z</time>
      </trkpt>
      <trkpt lat="67.3332" lon="22.248476">
        <ele>215</ele>
        <time>1970-01-01T01:00:00Z</time>
      </trkpt>
      <trkpt lat="67.33311" lon="22.248436">
        <ele>215</ele>
        <time>1970-01-01T01:00:00Z</time>
      </trkpt>
      <trkpt lat="67.333015" lon="22.248419">
        <ele>215</ele>
        <time>1970-01-01T01:00:00Z</time>
      </trkpt>
      <trkpt lat="67.332924" lon="22.24843">
        <ele>215</ele>
        <time>1970-01-01T01:00:00Z</time>
      </trkpt>
      <trkpt lat="67.33284" lon="22.248428">
        <ele>215</ele>
        <time>1970-01-01T01:00:00Z</time>
      </trkpt>
      <trkpt lat="67.33275" lon="22.248426">
        <ele>215</ele>
        <time>1970-01-01T01:00:00Z</time>
      </trkpt>
      <trkpt lat="67.332664" lon="22.248453">
        <ele>215</ele>
        <time>1970-01-01T01:00:00Z</time>
      </trkpt>
      <trkpt lat="67.33258" lon="22.24846">
        <ele>215</ele>
        <time>1970-01-01T01:00:00Z</time>
      </trkpt>
      <trkpt lat="67.33249" lon="22.248434">
        <ele>215</ele>
        <time>1970-01-01T01:00:00Z</time>
      </trkpt>
      <trkpt lat="67.332405" lon="22.248402">
        <ele>215</ele>
        <time>1970-01-01T01:00:00Z</time>
      </trkpt>
      <trkpt lat="67.33232" lon="22.248344">
        <ele>215</ele>
        <time>1970-01-01T01:00:00Z</time>
      </trkpt>
      <trkpt lat="67.332245" lon="22.2483">
        <ele>215</ele>
        <time>1970-01-01T01:00:00Z</time>
      </trkpt>
      <trkpt lat="67.33216" lon="22.248281">
        <ele>215</ele>
        <time>1970-01-01T01:00:00Z</time>
      </trkpt>
      <trkpt lat="67.33208" lon="22.248283">
        <ele>215</ele>
        <time>1970-01-01T01:00:00Z</time>
      </trkpt>
      <trkpt lat="67.33199" lon="22.248281">
        <ele>215</ele>
        <time>1970-01-01T01:00:00Z</time>
      </trkpt>
      <trkpt lat="67.3319" lon="22.248272">
        <ele>215</ele>
        <time>1970-01-01T01:00:00Z</time>
      </trkpt>
      <trkpt lat="67.33181" lon="22.248262">
        <ele>215</ele>
        <time>1970-01-01T01:00:00Z</time>
      </trkpt>
      <trkpt lat="67.33172" lon="22.248281">
        <ele>215</ele>
        <time>1970-01-01T01:00:00Z</time>
      </trkpt>
      <trkpt lat="67.33181" lon="22.248344">
        <ele>215</ele>
        <time>1970-01-01T01:00:00Z</time>
      </trkpt>
      <trkpt lat="67.331894" lon="22.248323">
        <ele>215</ele>
        <time>1970-01-01T01:00:00Z</time>
      </trkpt>
      <trkpt lat="67.33198" lon="22.248337">
        <ele>215</ele>
        <time>1970-01-01T01:00:00Z</time>
      </trkpt>
      <trkpt lat="67.33207" lon="22.248344">
        <ele>215</ele>
        <time>1970-01-01T01:00:00Z</time>
      </trkpt>
      <trkpt lat="67.33215" lon="22.248343">
        <ele>215</ele>
        <time>1970-01-01T01:00:00Z</time>
      </trkpt>
      <trkpt lat="67.332245" lon="22.248367">
        <ele>215</ele>
        <time>1970-01-01T01:00:00Z</time>
      </trkpt>
      <trkpt lat="67.33233" lon="22.248386">
        <ele>215</ele>
        <time>1970-01-01T01:00:00Z</time>
      </trkpt>
      <trkpt lat="67.33241" lon="22.248432">
        <ele>215</ele>
        <time>1970-01-01T01:00:00Z</time>
      </trkpt>
      <trkpt lat="67.3325" lon="22.248463">
        <ele>215</ele>
        <time>1970-01-01T01:00:00Z</time>
      </trkpt>
      <trkpt lat="67.33259" lon="22.248497">
        <ele>215</ele>
        <time>1970-01-01T01:00:00Z</time>
      </trkpt>
      <trkpt lat="67.33268" lon="22.248474">
        <ele>215</ele>
        <time>1970-01-01T01:00:00Z</time>
      </trkpt>
      <trkpt lat="67.33276" lon="22.248453">
        <ele>215</ele>
        <time>1970-01-01T01:00:00Z</time>
      </trkpt>
      <trkpt lat="67.33285" lon="22.248442">
        <ele>215</ele>
        <time>1970-01-01T01:00:00Z</time>
      </trkpt>
      <trkpt lat="67.33294" lon="22.248455">
        <ele>215</ele>
        <time>1970-01-01T01:00:00Z</time>
      </trkpt>
      <trkpt lat="67.33302" lon="22.24847">
        <ele>215</ele>
        <time>1970-01-01T01:00:00Z</time>
      </trkpt>
      <trkpt lat="67.33311" lon="22.248484">
        <ele>215</ele>
        <time>1970-01-01T01:00:00Z</time>
      </trkpt>
      <trkpt lat="67.3332" lon="22.24851">
        <ele>215</ele>
        <time>1970-01-01T01:00:00Z</time>
      </trkpt>
      <trkpt lat="67.33328" lon="22.248554">
        <ele>215</ele>
        <time>1970-01-01T01:00:00Z</time>
      </trkpt>
      <trkpt lat="67.333374" lon="22.248573">
        <ele>215</ele>
        <time>1970-01-01T01:00:00Z</time>
      </trkpt>
      <trkpt lat="67.33345" lon="22.24856">
        <ele>215</ele>
        <time>1970-01-01T01:00:00Z</time>
      </trkpt>
      <trkpt lat="67.33351" lon="22.248392">
        <ele>215</ele>
        <time>1970-01-01T01:00:00Z</time>
      </trkpt>
      <trkpt lat="67.333534" lon="22.248182">
        <ele>215</ele>
        <time>1970-01-01T01:00:00Z</time>
      </trkpt>
      <trkpt lat="67.33354" lon="22.247965">
        <ele>215</ele>
        <time>1970-01-01T01:00:00Z</time>
      </trkpt>
      <trkpt lat="67.33355" lon="22.247828">
        <ele>215</ele>
        <time>1970-01-01T01:00:00Z</time>
      </trkpt>
      <trkpt lat="67.33355" lon="22.247751">
        <ele>214.286</ele>
        <time>1970-01-01T01:00:00Z</time>
      </trkpt>
      <trkpt lat="67.33356" lon="22.247522">
        <ele>214.25</ele>
        <time>1970-01-01T01:00:00Z</time>
      </trkpt>
      <trkpt lat="67.33356" lon="22.2473">
        <ele>214.222</ele>
        <time>1970-01-01T01:00:00Z</time>
      </trkpt>
      <trkpt lat="67.333565" lon="22.247078">
        <ele>214.2</ele>
        <time>1970-01-01T01:00:00Z</time>
      </trkpt>
      <trkpt lat="67.33359" lon="22.246859">
        <ele>214.182</ele>
        <time>1970-01-01T01:00:00Z</time>
      </trkpt>
      <trkpt lat="67.3336" lon="22.246649">
        <ele>214.091</ele>
        <time>1970-01-01T01:00:00Z</time>
      </trkpt>
      <trkpt lat="67.33364" lon="22.246447">
        <ele>214</ele>
        <time>1970-01-01T01:00:00Z</time>
      </trkpt>
      <trkpt lat="67.33369" lon="22.246275">
        <ele>214</ele>
        <time>1970-01-01T01:00:00Z</time>
      </trkpt>
      <trkpt lat="67.333755" lon="22.246122">
        <ele>214</ele>
        <time>1970-01-01T01:00:00Z</time>
      </trkpt>
      <trkpt lat="67.33382" lon="22.245949">
        <ele>214</ele>
        <time>1970-01-01T01:00:00Z</time>
      </trkpt>
      <trkpt lat="67.33387" lon="22.245787">
        <ele>214</ele>
        <time>1970-01-01T01:00:00Z</time>
      </trkpt>
      <trkpt lat="67.33392" lon="22.245617">
        <ele>214</ele>
        <time>1970-01-01T01:00:00Z</time>
      </trkpt>
      <trkpt lat="67.33398" lon="22.245451">
        <ele>214</ele>
        <time>1970-01-01T01:00:00Z</time>
      </trkpt>
      <trkpt lat="67.33403" lon="22.245281">
        <ele>214</ele>
        <time>1970-01-01T01:00:00Z</time>
      </trkpt>
      <trkpt lat="67.33409" lon="22.245123">
        <ele>214.091</ele>
        <time>1970-01-01T01:00:00Z</time>
      </trkpt>
      <trkpt lat="67.334145" lon="22.244951">
        <ele>214.182</ele>
        <time>1970-01-01T01:00:00Z</time>
      </trkpt>
      <trkpt lat="67.3342" lon="22.244772">
        <ele>214.273</ele>
        <time>1970-01-01T01:00:00Z</time>
      </trkpt>
      <trkpt lat="67.33426" lon="22.244604">
        <ele>214.364</ele>
        <time>1970-01-01T01:00:00Z</time>
      </trkpt>
      <trkpt lat="67.334305" lon="22.244438">
        <ele>214.455</ele>
        <time>1970-01-01T01:00:00Z</time>
      </trkpt>
      <trkpt lat="67.334366" lon="22.24427">
        <ele>214.545</ele>
        <time>1970-01-01T01:00:00Z</time>
      </trkpt>
      <trkpt lat="67.33443" lon="22.244095">
        <ele>214.636</ele>
        <time>1970-01-01T01:00:00Z</time>
      </trkpt>
      <trkpt lat="67.33449" lon="22.243948">
        <ele>214.727</ele>
        <time>1970-01-01T01:00:00Z</time>
      </trkpt>
      <trkpt lat="67.33448" lon="22.243711">
        <ele>214.818</ele>
        <time>1970-01-01T01:00:00Z</time>
      </trkpt>
      <trkpt lat="67.334435" lon="22.243519">
        <ele>214.909</ele>
        <time>1970-01-01T01:00:00Z</time>
      </trkpt>
      <trkpt lat="67.33439" lon="22.243332">
        <ele>215.091</ele>
        <time>1970-01-01T01:00:00Z</time>
      </trkpt>
      <trkpt lat="67.334335" lon="22.24313">
        <ele>215.182</ele>
        <time>1970-01-01T01:00:00Z</time>
      </trkpt>
      <trkpt lat="67.33433" lon="22.242916">
        <ele>215.273</ele>
        <time>1970-01-01T01:00:00Z</time>
      </trkpt>
      <trkpt lat="67.33437" lon="22.242712">
        <ele>215.364</ele>
        <time>1970-01-01T01:00:00Z</time>
      </trkpt>
      <trkpt lat="67.334404" lon="22.242512">
        <ele>215.4</ele>
        <time>1970-01-01T01:00:00Z</time>
      </trkpt>
      <trkpt lat="67.33442" lon="22.242292">
        <ele>215.444</ele>
        <time>1970-01-01T01:00:00Z</time>
      </trkpt>
      <trkpt lat="67.3344" lon="22.24209">
        <ele>215.5</ele>
        <time>1970-01-01T01:00:00Z</time>
      </trkpt>
      <trkpt lat="67.33435" lon="22.241913">
        <ele>215.571</ele>
        <time>1970-01-01T01:00:00Z</time>
      </trkpt>
      <trkpt lat="67.33433" lon="22.241901">
        <ele>215.667</ele>
        <time>1970-01-01T01:00:00Z</time>
      </trkpt>
      <trkpt lat="67.3343" lon="22.241756">
        <ele>218.143</ele>
        <time>1970-01-01T01:00:00Z</time>
      </trkpt>
      <trkpt lat="67.33437" lon="22.241693">
        <ele>218.375</ele>
        <time>1970-01-01T01:00:00Z</time>
      </trkpt>
      <trkpt lat="67.334366" lon="22.241478">
        <ele>218.667</ele>
        <time>1970-01-01T01:00:00Z</time>
      </trkpt>
      <trkpt lat="67.33435" lon="22.24124">
        <ele>219</ele>
        <time>1970-01-01T01:00:00Z</time>
      </trkpt>
      <trkpt lat="67.33433" lon="22.24104">
        <ele>219.364</ele>
        <time>1970-01-01T01:00:00Z</time>
      </trkpt>
      <trkpt lat="67.334274" lon="22.240871">
        <ele>220</ele>
        <time>1970-01-01T01:00:00Z</time>
      </trkpt>
      <trkpt lat="67.33421" lon="22.240715">
        <ele>220.727</ele>
        <time>1970-01-01T01:00:00Z</time>
      </trkpt>
      <trkpt lat="67.33416" lon="22.24054">
        <ele>221.545</ele>
        <time>1970-01-01T01:00:00Z</time>
      </trkpt>
      <trkpt lat="67.33411" lon="22.24037">
        <ele>222.273</ele>
        <time>1970-01-01T01:00:00Z</time>
      </trkpt>
      <trkpt lat="67.33406" lon="22.240198">
        <ele>223</ele>
        <time>1970-01-01T01:00:00Z</time>
      </trkpt>
      <trkpt lat="67.33402" lon="22.24001">
        <ele>223.727</ele>
        <time>1970-01-01T01:00:00Z</time>
      </trkpt>
      <trkpt lat="67.33402" lon="22.23978">
        <ele>224.455</ele>
        <time>1970-01-01T01:00:00Z</time>
      </trkpt>
      <trkpt lat="67.334076" lon="22.239586">
        <ele>225.182</ele>
        <time>1970-01-01T01:00:00Z</time>
      </trkpt>
      <trkpt lat="67.33413" lon="22.239412">
        <ele>225.909</ele>
        <time>1970-01-01T01:00:00Z</time>
      </trkpt>
      <trkpt lat="67.33419" lon="22.239258">
        <ele>226.545</ele>
        <time>1970-01-01T01:00:00Z</time>
      </trkpt>
      <trkpt lat="67.334236" lon="22.239069">
        <ele>227.182</ele>
        <time>1970-01-01T01:00:00Z</time>
      </trkpt>
      <trkpt lat="67.33428" lon="22.238884">
        <ele>227.727</ele>
        <time>1970-01-01T01:00:00Z</time>
      </trkpt>
      <trkpt lat="67.33433" lon="22.238697">
        <ele>228.182</ele>
        <time>1970-01-01T01:00:00Z</time>
      </trkpt>
      <trkpt lat="67.33439" lon="22.238516">
        <ele>228.545</ele>
        <time>1970-01-01T01:00:00Z</time>
      </trkpt>
      <trkpt lat="67.33444" lon="22.238346">
        <ele>228.909</ele>
        <time>1970-01-01T01:00:00Z</time>
      </trkpt>
      <trkpt lat="67.33446" lon="22.238121">
        <ele>229.273</ele>
        <time>1970-01-01T01:00:00Z</time>
      </trkpt>
      <trkpt lat="67.33451" lon="22.23794">
        <ele>229.636</ele>
        <time>1970-01-01T01:00:00Z</time>
      </trkpt>
      <trkpt lat="67.33458" lon="22.237776">
        <ele>229.909</ele>
        <time>1970-01-01T01:00:00Z</time>
      </trkpt>
      <trkpt lat="67.33463" lon="22.2376">
        <ele>230.182</ele>
        <time>1970-01-01T01:00:00Z</time>
      </trkpt>
      <trkpt lat="67.3347" lon="22.237442">
        <ele>230.455</ele>
        <time>1970-01-01T01:00:00Z</time>
      </trkpt>
      <trkpt lat="67.33476" lon="22.237268">
        <ele>230.727</ele>
        <time>1970-01-01T01:00:00Z</time>
      </trkpt>
      <trkpt lat="67.334816" lon="22.237095">
        <ele>230.909</ele>
        <time>1970-01-01T01:00:00Z</time>
      </trkpt>
      <trkpt lat="67.33488" lon="22.236925">
        <ele>231.091</ele>
        <time>1970-01-01T01:00:00Z</time>
      </trkpt>
      <trkpt lat="67.334915" lon="22.236734">
        <ele>231.364</ele>
        <time>1970-01-01T01:00:00Z</time>
      </trkpt>
      <trkpt lat="67.33496" lon="22.23654">
        <ele>231.727</ele>
        <time>1970-01-01T01:00:00Z</time>
      </trkpt>
      <trkpt lat="67.335" lon="22.23635">
        <ele>232.091</ele>
        <time>1970-01-01T01:00:00Z</time>
      </trkpt>
      <trkpt lat="67.33503" lon="22.236145">
        <ele>232.455</ele>
        <time>1970-01-01T01:00:00Z</time>
      </trkpt>
      <trkpt lat="67.335075" lon="22.23597">
        <ele>232.909</ele>
        <time>1970-01-01T01:00:00Z</time>
      </trkpt>
      <trkpt lat="67.33503" lon="22.23578">
        <ele>233.364</ele>
        <time>1970-01-01T01:00:00Z</time>
      </trkpt>
      <trkpt lat="67.33496" lon="22.235653">
        <ele>233.818</ele>
        <time>1970-01-01T01:00:00Z</time>
      </trkpt>
      <trkpt lat="67.334885" lon="22.235523">
        <ele>234.273</ele>
        <time>1970-01-01T01:00:00Z</time>
      </trkpt>
      <trkpt lat="67.334816" lon="22.2354">
        <ele>234.818</ele>
        <time>1970-01-01T01:00:00Z</time>
      </trkpt>
      <trkpt lat="67.33474" lon="22.23525">
        <ele>235.364</ele>
        <time>1970-01-01T01:00:00Z</time>
      </trkpt>
      <trkpt lat="67.33466" lon="22.235153">
        <ele>235.909</ele>
        <time>1970-01-01T01:00:00Z</time>
      </trkpt>
      <trkpt lat="67.3346" lon="22.234997">
        <ele>236.364</ele>
        <time>1970-01-01T01:00:00Z</time>
      </trkpt>
      <trkpt lat="67.334564" lon="22.234812">
        <ele>236.818</ele>
        <time>1970-01-01T01:00:00Z</time>
      </trkpt>
      <trkpt lat="67.334526" lon="22.234608">
        <ele>237.273</ele>
        <time>1970-01-01T01:00:00Z</time>
      </trkpt>
      <trkpt lat="67.33447" lon="22.234423">
        <ele>237.636</ele>
        <time>1970-01-01T01:00:00Z</time>
      </trkpt>
      <trkpt lat="67.33442" lon="22.234262">
        <ele>237.909</ele>
        <time>1970-01-01T01:00:00Z</time>
      </trkpt>
      <trkpt lat="67.334335" lon="22.234243">
        <ele>238.182</ele>
        <time>1970-01-01T01:00:00Z</time>
      </trkpt>
      <trkpt lat="67.33425" lon="22.234325">
        <ele>238.455</ele>
        <time>1970-01-01T01:00:00Z</time>
      </trkpt>
      <trkpt lat="67.33419" lon="22.234451">
        <ele>238.636</ele>
        <time>1970-01-01T01:00:00Z</time>
      </trkpt>
      <trkpt lat="67.33411" lon="22.234524">
        <ele>238.727</ele>
        <time>1970-01-01T01:00:00Z</time>
      </trkpt>
      <trkpt lat="67.33402" lon="22.234598">
        <ele>238.8</ele>
        <time>1970-01-01T01:00:00Z</time>
      </trkpt>
      <trkpt lat="67.333954" lon="22.234713">
        <ele>238.889</ele>
        <time>1970-01-01T01:00:00Z</time>
      </trkpt>
      <trkpt lat="67.33388" lon="22.23482">
        <ele>239</ele>
        <time>1970-01-01T01:00:00Z</time>
      </trkpt>
      <trkpt lat="67.33382" lon="22.234688">
        <ele>239</ele>
        <time>1970-01-01T01:00:00Z</time>
      </trkpt>
      <trkpt lat="67.33384" lon="22.234623">
        <ele>239</ele>
        <time>1970-01-01T01:00:00Z</time>
      </trkpt>
      <trkpt lat="67.33376" lon="22.23453">
        <ele>239</ele>
        <time>1970-01-01T01:00:00Z</time>
      </trkpt>
      <trkpt lat="67.333755" lon="22.23451">
        <ele>239</ele>
        <time>1970-01-01T01:00:00Z</time>
      </trkpt>
      <trkpt lat="67.333855" lon="22.234543">
        <ele>239</ele>
        <time>1970-01-01T01:00:00Z</time>
      </trkpt>
      <trkpt lat="67.33386" lon="22.23451">
        <ele>239</ele>
        <time>1970-01-01T01:00:00Z</time>
      </trkpt>
      <trkpt lat="67.333855" lon="22.234766">
        <ele>239</ele>
        <time>1970-01-01T01:00:00Z</time>
      </trkpt>
      <trkpt lat="67.33394" lon="22.234726">
        <ele>238.875</ele>
        <time>1970-01-01T01:00:00Z</time>
      </trkpt>
      <trkpt lat="67.33401" lon="22.234598">
        <ele>238.778</ele>
        <time>1970-01-01T01:00:00Z</time>
      </trkpt>
      <trkpt lat="67.33409" lon="22.234554">
        <ele>238.7</ele>
        <time>1970-01-01T01:00:00Z</time>
      </trkpt>
      <trkpt lat="67.334175" lon="22.234526">
        <ele>238.636</ele>
        <time>1970-01-01T01:00:00Z</time>
      </trkpt>
      <trkpt lat="67.33426" lon="22.234447">
        <ele>238.455</ele>
        <time>1970-01-01T01:00:00Z</time>
      </trkpt>
      <trkpt lat="67.334335" lon="22.23435">
        <ele>238.182</ele>
        <time>1970-01-01T01:00:00Z</time>
      </trkpt>
      <trkpt lat="67.33441" lon="22.234274">
        <ele>237.909</ele>
        <time>1970-01-01T01:00:00Z</time>
      </trkpt>
      <trkpt lat="67.33448" lon="22.23442">
        <ele>237.636</ele>
        <time>1970-01-01T01:00:00Z</time>
      </trkpt>
      <trkpt lat="67.33452" lon="22.234602">
        <ele>237.273</ele>
        <time>1970-01-01T01:00:00Z</time>
      </trkpt>
      <trkpt lat="67.33455" lon="22.234812">
        <ele>236.818</ele>
        <time>1970-01-01T01:00:00Z</time>
      </trkpt>
      <trkpt lat="67.3346" lon="22.235">
        <ele>236.364</ele>
        <time>1970-01-01T01:00:00Z</time>
      </trkpt>
      <trkpt lat="67.33466" lon="22.235155">
        <ele>235.909</ele>
        <time>1970-01-01T01:00:00Z</time>
      </trkpt>
      <trkpt lat="67.334724" lon="22.235308">
        <ele>235.364</ele>
        <time>1970-01-01T01:00:00Z</time>
      </trkpt>
      <trkpt lat="67.3348" lon="22.235432">
        <ele>234.727</ele>
        <time>1970-01-01T01:00:00Z</time>
      </trkpt>
      <trkpt lat="67.33487" lon="22.235567">
        <ele>234.091</ele>
        <time>1970-01-01T01:00:00Z</time>
      </trkpt>
      <trkpt lat="67.334946" lon="22.2357">
        <ele>233.545</ele>
        <time>1970-01-01T01:00:00Z</time>
      </trkpt>
      <trkpt lat="67.33502" lon="22.235823">
        <ele>233.091</ele>
        <time>1970-01-01T01:00:00Z</time>
      </trkpt>
      <trkpt lat="67.335106" lon="22.2359">
        <ele>232.636</ele>
        <time>1970-01-01T01:00:00Z</time>
      </trkpt>
      <trkpt lat="67.3352" lon="22.235914">
        <ele>232.182</ele>
        <time>1970-01-01T01:00:00Z</time>
      </trkpt>
      <trkpt lat="67.335266" lon="22.235779">
        <ele>231.818</ele>
        <time>1970-01-01T01:00:00Z</time>
      </trkpt>
      <trkpt lat="67.33533" lon="22.235632">
        <ele>231.545</ele>
        <time>1970-01-01T01:00:00Z</time>
      </trkpt>
      <trkpt lat="67.3354" lon="22.23552">
        <ele>231.273</ele>
        <time>1970-01-01T01:00:00Z</time>
      </trkpt>
      <trkpt lat="67.33547" lon="22.235386">
        <ele>231.091</ele>
        <time>1970-01-01T01:00:00Z</time>
      </trkpt>
      <trkpt lat="67.33553" lon="22.235228">
        <ele>231</ele>
        <time>1970-01-01T01:00:00Z</time>
      </trkpt>
      <trkpt lat="67.33561" lon="22.235107">
        <ele>231</ele>
        <time>1970-01-01T01:00:00Z</time>
      </trkpt>
      <trkpt lat="67.33568" lon="22.235023">
        <ele>231</ele>
        <time>1970-01-01T01:00:00Z</time>
      </trkpt>
      <trkpt lat="67.33576" lon="22.234978">
        <ele>231</ele>
        <time>1970-01-01T01:00:00Z</time>
      </trkpt>
      <trkpt lat="67.335846" lon="22.234957">
        <ele>231</ele>
        <time>1970-01-01T01:00:00Z</time>
      </trkpt>
      <trkpt lat="67.33593" lon="22.234924">
        <ele>231</ele>
        <time>1970-01-01T01:00:00Z</time>
      </trkpt>
      <trkpt lat="67.33601" lon="22.23485">
        <ele>231</ele>
        <time>1970-01-01T01:00:00Z</time>
      </trkpt>
      <trkpt lat="67.3361" lon="22.234797">
        <ele>230.909</ele>
        <time>1970-01-01T01:00:00Z</time>
      </trkpt>
      <trkpt lat="67.336174" lon="22.234726">
        <ele>230.818</ele>
        <time>1970-01-01T01:00:00Z</time>
      </trkpt>
      <trkpt lat="67.33626" lon="22.234678">
        <ele>230.727</ele>
        <time>1970-01-01T01:00:00Z</time>
      </trkpt>
      <trkpt lat="67.33634" lon="22.234594">
        <ele>230.727</ele>
        <time>1970-01-01T01:00:00Z</time>
      </trkpt>
      <trkpt lat="67.336426" lon="22.234543">
        <ele>230.727</ele>
        <time>1970-01-01T01:00:00Z</time>
      </trkpt>
      <trkpt lat="67.33652" lon="22.234488">
        <ele>230.727</ele>
        <time>1970-01-01T01:00:00Z</time>
      </trkpt>
      <trkpt lat="67.3366" lon="22.234451">
        <ele>230.727</ele>
        <time>1970-01-01T01:00:00Z</time>
      </trkpt>
      <trkpt lat="67.336685" lon="22.234386">
        <ele>230.727</ele>
        <time>1970-01-01T01:00:00Z</time>
      </trkpt>
      <trkpt lat="67.33677" lon="22.234346">
        <ele>230.636</ele>
        <time>1970-01-01T01:00:00Z</time>
      </trkpt>
      <trkpt lat="67.33685" lon="22.23431">
        <ele>230.545</ele>
        <time>1970-01-01T01:00:00Z</time>
      </trkpt>
      <trkpt lat="67.33694" lon="22.23426">
        <ele>230.545</ele>
        <time>1970-01-01T01:00:00Z</time>
      </trkpt>
      <trkpt lat="67.33702" lon="22.23422">
        <ele>230.636</ele>
        <time>1970-01-01T01:00:00Z</time>
      </trkpt>
      <trkpt lat="67.3371" lon="22.234138">
        <ele>230.727</ele>
        <time>1970-01-01T01:00:00Z</time>
      </trkpt>
      <trkpt lat="67.33718" lon="22.234085">
        <ele>230.818</ele>
        <time>1970-01-01T01:00:00Z</time>
      </trkpt>
      <trkpt lat="67.337265" lon="22.234041">
        <ele>230.727</ele>
        <time>1970-01-01T01:00:00Z</time>
      </trkpt>
      <trkpt lat="67.33735" lon="22.23397">
        <ele>230.636</ele>
        <time>1970-01-01T01:00:00Z</time>
      </trkpt>
      <trkpt lat="67.337425" lon="22.233904">
        <ele>230.545</ele>
        <time>1970-01-01T01:00:00Z</time>
      </trkpt>
      <trkpt lat="67.33751" lon="22.23388">
        <ele>230.364</ele>
        <time>1970-01-01T01:00:00Z</time>
      </trkpt>
      <trkpt lat="67.33759" lon="22.233866">
        <ele>230.182</ele>
        <time>1970-01-01T01:00:00Z</time>
      </trkpt>
      <trkpt lat="67.33767" lon="22.23384">
        <ele>230.091</ele>
        <time>1970-01-01T01:00:00Z</time>
      </trkpt>
      <trkpt lat="67.33776" lon="22.233885">
        <ele>229.909</ele>
        <time>1970-01-01T01:00:00Z</time>
      </trkpt>
      <trkpt lat="67.33784" lon="22.233973">
        <ele>229.636</ele>
        <time>1970-01-01T01:00:00Z</time>
      </trkpt>
      <trkpt lat="67.33792" lon="22.234047">
        <ele>229.273</ele>
        <time>1970-01-01T01:00:00Z</time>
      </trkpt>
      <trkpt lat="67.338" lon="22.234116">
        <ele>228.818</ele>
        <time>1970-01-01T01:00:00Z</time>
      </trkpt>
      <trkpt lat="67.33808" lon="22.23417">
        <ele>228.455</ele>
        <time>1970-01-01T01:00:00Z</time>
      </trkpt>
      <trkpt lat="67.338165" lon="22.234253">
        <ele>228.273</ele>
        <time>1970-01-01T01:00:00Z</time>
      </trkpt>
      <trkpt lat="67.33824" lon="22.23437">
        <ele>228.091</ele>
        <time>1970-01-01T01:00:00Z</time>
      </trkpt>
      <trkpt lat="67.3383" lon="22.23451">
        <ele>228</ele>
        <time>1970-01-01T01:00:00Z</time>
      </trkpt>
      <trkpt lat="67.33837" lon="22.234627">
        <ele>228</ele>
        <time>1970-01-01T01:00:00Z</time>
      </trkpt>
      <trkpt lat="67.33842" lon="22.234426">
        <ele>228</ele>
        <time>1970-01-01T01:00:00Z</time>
      </trkpt>
      <trkpt lat="67.338455" lon="22.234234">
        <ele>228.091</ele>
        <time>1970-01-01T01:00:00Z</time>
      </trkpt>
      <trkpt lat="67.33851" lon="22.234053">
        <ele>228.273</ele>
        <time>1970-01-01T01:00:00Z</time>
      </trkpt>
      <trkpt lat="67.33856" lon="22.233898">
        <ele>228.455</ele>
        <time>1970-01-01T01:00:00Z</time>
      </trkpt>
      <trkpt lat="67.33863" lon="22.233744">
        <ele>228.818</ele>
        <time>1970-01-01T01:00:00Z</time>
      </trkpt>
      <trkpt lat="67.33871" lon="22.233606">
        <ele>229.273</ele>
        <time>1970-01-01T01:00:00Z</time>
      </trkpt>
      <trkpt lat="67.33877" lon="22.23345">
        <ele>229.636</ele>
        <time>1970-01-01T01:00:00Z</time>
      </trkpt>
      <trkpt lat="67.33882" lon="22.233284">
        <ele>230</ele>
        <time>1970-01-01T01:00:00Z</time>
      </trkpt>
      <trkpt lat="67.33888" lon="22.233112">
        <ele>230.364</ele>
        <time>1970-01-01T01:00:00Z</time>
      </trkpt>
      <trkpt lat="67.338936" lon="22.232927">
        <ele>230.636</ele>
        <time>1970-01-01T01:00:00Z</time>
      </trkpt>
      <trkpt lat="67.339005" lon="22.232769">
        <ele>231</ele>
        <time>1970-01-01T01:00:00Z</time>
      </trkpt>
      <trkpt lat="67.33904" lon="22.232573">
        <ele>231.364</ele>
        <time>1970-01-01T01:00:00Z</time>
      </trkpt>
      <trkpt lat="67.33904" lon="22.232344">
        <ele>231.636</ele>
        <time>1970-01-01T01:00:00Z</time>
      </trkpt>
      <trkpt lat="67.33901" lon="22.232128">
        <ele>232</ele>
        <time>1970-01-01T01:00:00Z</time>
      </trkpt>
      <trkpt lat="67.33902" lon="22.231897">
        <ele>232.364</ele>
        <time>1970-01-01T01:00:00Z</time>
      </trkpt>
      <trkpt lat="67.33905" lon="22.231697">
        <ele>232.636</ele>
        <time>1970-01-01T01:00:00Z</time>
      </trkpt>
      <trkpt lat="67.339096" lon="22.231512">
        <ele>232.909</ele>
        <time>1970-01-01T01:00:00Z</time>
      </trkpt>
      <trkpt lat="67.339134" lon="22.231318">
        <ele>233.182</ele>
        <time>1970-01-01T01:00:00Z</time>
      </trkpt>
      <trkpt lat="67.33918" lon="22.231134">
        <ele>233.364</ele>
        <time>1970-01-01T01:00:00Z</time>
      </trkpt>
      <trkpt lat="67.33925" lon="22.230986">
        <ele>233.545</ele>
        <time>1970-01-01T01:00:00Z</time>
      </trkpt>
      <trkpt lat="67.339325" lon="22.230904">
        <ele>233.818</ele>
        <time>1970-01-01T01:00:00Z</time>
      </trkpt>
      <trkpt lat="67.3394" lon="22.230776">
        <ele>234</ele>
        <time>1970-01-01T01:00:00Z</time>
      </trkpt>
      <trkpt lat="67.33946" lon="22.230602">
        <ele>234.182</ele>
        <time>1970-01-01T01:00:00Z</time>
      </trkpt>
      <trkpt lat="67.33949" lon="22.230408">
        <ele>234.364</ele>
        <time>1970-01-01T01:00:00Z</time>
      </trkpt>
      <trkpt lat="67.339516" lon="22.230179">
        <ele>234.545</ele>
        <time>1970-01-01T01:00:00Z</time>
      </trkpt>
      <trkpt lat="67.33955" lon="22.22998">
        <ele>234.727</ele>
        <time>1970-01-01T01:00:00Z</time>
      </trkpt>
      <trkpt lat="67.339554" lon="22.229761">
        <ele>234.909</ele>
        <time>1970-01-01T01:00:00Z</time>
      </trkpt>
      <trkpt lat="67.33953" lon="22.229551">
        <ele>235.091</ele>
        <time>1970-01-01T01:00:00Z</time>
      </trkpt>
      <trkpt lat="67.33951" lon="22.229343">
        <ele>235.364</ele>
        <time>1970-01-01T01:00:00Z</time>
      </trkpt>
      <trkpt lat="67.33947" lon="22.229141">
        <ele>235.545</ele>
        <time>1970-01-01T01:00:00Z</time>
      </trkpt>
      <trkpt lat="67.33943" lon="22.228949">
        <ele>235.727</ele>
        <time>1970-01-01T01:00:00Z</time>
      </trkpt>
      <trkpt lat="67.33941" lon="22.228739">
        <ele>235.818</ele>
        <time>1970-01-01T01:00:00Z</time>
      </trkpt>
      <trkpt lat="67.339424" lon="22.228521">
        <ele>235.909</ele>
        <time>1970-01-01T01:00:00Z</time>
      </trkpt>
      <trkpt lat="67.3395" lon="22.22841">
        <ele>235.909</ele>
        <time>1970-01-01T01:00:00Z</time>
      </trkpt>
      <trkpt lat="67.339584" lon="22.228365">
        <ele>235.909</ele>
        <time>1970-01-01T01:00:00Z</time>
      </trkpt>
      <trkpt lat="67.33967" lon="22.228342">
        <ele>235.818</ele>
        <time>1970-01-01T01:00:00Z</time>
      </trkpt>
      <trkpt lat="67.33976" lon="22.228315">
        <ele>235.636</ele>
        <time>1970-01-01T01:00:00Z</time>
      </trkpt>
      <trkpt lat="67.33984" lon="22.228283">
        <ele>235.455</ele>
        <time>1970-01-01T01:00:00Z</time>
      </trkpt>
      <trkpt lat="67.339935" lon="22.228245">
        <ele>235.364</ele>
        <time>1970-01-01T01:00:00Z</time>
      </trkpt>
      <trkpt lat="67.34003" lon="22.228292">
        <ele>235.091</ele>
        <time>1970-01-01T01:00:00Z</time>
      </trkpt>
      <trkpt lat="67.34011" lon="22.228268">
        <ele>234.909</ele>
        <time>1970-01-01T01:00:00Z</time>
      </trkpt>
      <trkpt lat="67.34015" lon="22.228077">
        <ele>234.727</ele>
        <time>1970-01-01T01:00:00Z</time>
      </trkpt>
      <trkpt lat="67.34014" lon="22.227856">
        <ele>234.545</ele>
        <time>1970-01-01T01:00:00Z</time>
      </trkpt>
      <trkpt lat="67.34012" lon="22.227629">
        <ele>234.4</ele>
        <time>1970-01-01T01:00:00Z</time>
      </trkpt>
      <trkpt lat="67.34015" lon="22.22742">
        <ele>234.333</ele>
        <time>1970-01-01T01:00:00Z</time>
      </trkpt>
      <trkpt lat="67.340225" lon="22.227358">
        <ele>234.25</ele>
        <time>1970-01-01T01:00:00Z</time>
      </trkpt>
      <trkpt lat="67.34031" lon="22.227308">
        <ele>234.143</ele>
        <time>1970-01-01T01:00:00Z</time>
      </trkpt>
      <trkpt lat="67.340355" lon="22.227306">
        <ele>234.167</ele>
        <time>1970-01-01T01:00:00Z</time>
      </trkpt>
      <trkpt lat="67.34036" lon="22.227468">
        <ele>234</ele>
        <time>1970-01-01T01:00:00Z</time>
      </trkpt>
      <trkpt lat="67.34036" lon="22.227257">
        <ele>234</ele>
        <time>1970-01-01T01:00:00Z</time>
      </trkpt>
      <trkpt lat="67.340324" lon="22.227255">
        <ele>234</ele>
        <time>1970-01-01T01:00:00Z</time>
      </trkpt>
      <trkpt lat="67.34037" lon="22.22747">
        <ele>234</ele>
        <time>1970-01-01T01:00:00Z</time>
      </trkpt>
      <trkpt lat="67.34037" lon="22.227524">
        <ele>234</ele>
        <time>1970-01-01T01:00:00Z</time>
      </trkpt>
      <trkpt lat="67.3403" lon="22.227337">
        <ele>234.5</ele>
        <time>1970-01-01T01:00:00Z</time>
      </trkpt>
      <trkpt lat="67.34022" lon="22.227356">
        <ele>234.5</ele>
        <time>1970-01-01T01:00:00Z</time>
      </trkpt>
      <trkpt lat="67.34013" lon="22.227438">
        <ele>234.5</ele>
        <time>1970-01-01T01:00:00Z</time>
      </trkpt>
      <trkpt lat="67.34005" lon="22.227478">
        <ele>234.5</ele>
        <time>1970-01-01T01:00:00Z</time>
      </trkpt>
      <trkpt lat="67.34002" lon="22.22745">
        <ele>234.5</ele>
        <time>1970-01-01T01:00:00Z</time>
      </trkpt>
      <trkpt lat="67.34011" lon="22.227634">
        <ele>234.286</ele>
        <time>1970-01-01T01:00:00Z</time>
      </trkpt>
      <trkpt lat="67.34013" lon="22.227842">
        <ele>234.125</ele>
        <time>1970-01-01T01:00:00Z</time>
      </trkpt>
      <trkpt lat="67.340164" lon="22.228048">
        <ele>234.125</ele>
        <time>1970-01-01T01:00:00Z</time>
      </trkpt>
      <trkpt lat="67.3402" lon="22.228254">
        <ele>234.125</ele>
        <time>1970-01-01T01:00:00Z</time>
      </trkpt>
      <trkpt lat="67.34023" lon="22.228466">
        <ele>234.125</ele>
        <time>1970-01-01T01:00:00Z</time>
      </trkpt>
      <trkpt lat="67.34029" lon="22.22863">
        <ele>234</ele>
        <time>1970-01-01T01:00:00Z</time>
      </trkpt>
      <trkpt lat="67.34033" lon="22.22856">
        <ele>233.833</ele>
        <time>1970-01-01T01:00:00Z</time>
      </trkpt>
      <trkpt lat="67.340294" lon="22.228859">
        <ele>233</ele>
        <time>1970-01-01T01:00:00Z</time>
      </trkpt>
      <trkpt lat="67.34029" lon="22.228855">
        <ele>233</ele>
        <time>1970-01-01T01:00:00Z</time>
      </trkpt>
      <trkpt lat="67.340294" lon="22.22864">
        <ele>233</ele>
        <time>1970-01-01T01:00:00Z</time>
      </trkpt>
      <trkpt lat="67.340294" lon="22.228838">
        <ele>233</ele>
        <time>1970-01-01T01:00:00Z</time>
      </trkpt>
      <trkpt lat="67.34029" lon="22.228853">
        <ele>233</ele>
        <time>1970-01-01T01:00:00Z</time>
      </trkpt>
      <trkpt lat="67.340294" lon="22.228859">
        <ele>233</ele>
        <time>1970-01-01T01:00:00Z</time>
      </trkpt>
      <trkpt lat="67.34025" lon="22.228655">
        <ele>233.857</ele>
        <time>1970-01-01T01:00:00Z</time>
      </trkpt>
      <trkpt lat="67.34023" lon="22.228443">
        <ele>233.875</ele>
        <time>1970-01-01T01:00:00Z</time>
      </trkpt>
      <trkpt lat="67.3402" lon="22.228243">
        <ele>233.889</ele>
        <time>1970-01-01T01:00:00Z</time>
      </trkpt>
      <trkpt lat="67.340164" lon="22.228054">
        <ele>233.9</ele>
        <time>1970-01-01T01:00:00Z</time>
      </trkpt>
      <trkpt lat="67.34015" lon="22.227848">
        <ele>233.9</ele>
        <time>1970-01-01T01:00:00Z</time>
      </trkpt>
      <trkpt lat="67.340126" lon="22.227625">
        <ele>234</ele>
        <time>1970-01-01T01:00:00Z</time>
      </trkpt>
      <trkpt lat="67.34018" lon="22.227457">
        <ele>234.125</ele>
        <time>1970-01-01T01:00:00Z</time>
      </trkpt>
      <trkpt lat="67.34026" lon="22.227386">
        <ele>234.143</ele>
        <time>1970-01-01T01:00:00Z</time>
      </trkpt>
      <trkpt lat="67.340324" lon="22.227463">
        <ele>234.167</ele>
        <time>1970-01-01T01:00:00Z</time>
      </trkpt>
      <trkpt lat="67.34034" lon="22.227486">
        <ele>234</ele>
        <time>1970-01-01T01:00:00Z</time>
      </trkpt>
      <trkpt lat="67.34037" lon="22.227499">
        <ele>234</ele>
        <time>1970-01-01T01:00:00Z</time>
      </trkpt>
      <trkpt lat="67.34034" lon="22.227274">
        <ele>234</ele>
        <time>1970-01-01T01:00:00Z</time>
      </trkpt>
      <trkpt lat="67.34034" lon="22.227278">
        <ele>234</ele>
        <time>1970-01-01T01:00:00Z</time>
      </trkpt>
      <trkpt lat="67.34039" lon="22.227453">
        <ele>234</ele>
        <time>1970-01-01T01:00:00Z</time>
      </trkpt>
      <trkpt lat="67.34035" lon="22.227524">
        <ele>234</ele>
        <time>1970-01-01T01:00:00Z</time>
      </trkpt>
      <trkpt lat="67.340324" lon="22.22757">
        <ele>234</ele>
        <time>1970-01-01T01:00:00Z</time>
      </trkpt>
      <trkpt lat="67.340385" lon="22.227694">
        <ele>234</ele>
        <time>1970-01-01T01:00:00Z</time>
      </trkpt>
      <trkpt lat="67.34039" lon="22.227694">
        <ele>234</ele>
        <time>1970-01-01T01:00:00Z</time>
      </trkpt>
      <trkpt lat="67.3404" lon="22.227715">
        <ele>234</ele>
        <time>1970-01-01T01:00:00Z</time>
      </trkpt>
      <trkpt lat="67.34038" lon="22.227484">
        <ele>234</ele>
        <time>1970-01-01T01:00:00Z</time>
      </trkpt>
      <trkpt lat="67.340416" lon="22.227472">
        <ele>234</ele>
        <time>1970-01-01T01:00:00Z</time>
      </trkpt>
      <trkpt lat="67.34039" lon="22.227692">
        <ele>234</ele>
        <time>1970-01-01T01:00:00Z</time>
      </trkpt>
      <trkpt lat="67.34039" lon="22.227718">
        <ele>234</ele>
        <time>1970-01-01T01:00:00Z</time>
      </trkpt>
      <trkpt lat="67.340355" lon="22.227482">
        <ele>234</ele>
        <time>1970-01-01T01:00:00Z</time>
      </trkpt>
      <trkpt lat="67.34035" lon="22.227356">
        <ele>234</ele>
        <time>1970-01-01T01:00:00Z</time>
      </trkpt>
      <trkpt lat="67.34029" lon="22.22735">
        <ele>234</ele>
        <time>1970-01-01T01:00:00Z</time>
      </trkpt>
      <trkpt lat="67.34023" lon="22.227182">
        <ele>234</ele>
        <time>1970-01-01T01:00:00Z</time>
      </trkpt>
      <trkpt lat="67.34022" lon="22.2271">
        <ele>234</ele>
        <time>1970-01-01T01:00:00Z</time>
      </trkpt>
      <trkpt lat="67.3403" lon="22.2273">
        <ele>234</ele>
        <time>1970-01-01T01:00:00Z</time>
      </trkpt>
      <trkpt lat="67.34032" lon="22.22754">
        <ele>234</ele>
        <time>1970-01-01T01:00:00Z</time>
      </trkpt>
      <trkpt lat="67.34036" lon="22.22744">
        <ele>234</ele>
        <time>1970-01-01T01:00:00Z</time>
      </trkpt>
      <trkpt lat="67.34039" lon="22.227459">
        <ele>234</ele>
        <time>1970-01-01T01:00:00Z</time>
      </trkpt>
      <trkpt lat="67.34037" lon="22.227474">
        <ele>234</ele>
        <time>1970-01-01T01:00:00Z</time>
      </trkpt>
      <trkpt lat="67.3403" lon="22.227465">
        <ele>234</ele>
        <time>1970-01-01T01:00:00Z</time>
      </trkpt>
      <trkpt lat="67.34029" lon="22.227482">
        <ele>234</ele>
        <time>1970-01-01T01:00:00Z</time>
      </trkpt>
      <trkpt lat="67.34022" lon="22.2274">
        <ele>234.143</ele>
        <time>1970-01-01T01:00:00Z</time>
      </trkpt>
      <trkpt lat="67.34013" lon="22.227467">
        <ele>234</ele>
        <time>1970-01-01T01:00:00Z</time>
      </trkpt>
      <trkpt lat="67.34014" lon="22.22768">
        <ele>233.889</ele>
        <time>1970-01-01T01:00:00Z</time>
      </trkpt>
      <trkpt lat="67.340164" lon="22.227898">
        <ele>233.8</ele>
        <time>1970-01-01T01:00:00Z</time>
      </trkpt>
      <trkpt lat="67.34019" lon="22.228098">
        <ele>233.8</ele>
        <time>1970-01-01T01:00:00Z</time>
      </trkpt>
      <trkpt lat="67.340225" lon="22.228308">
        <ele>233.778</ele>
        <time>1970-01-01T01:00:00Z</time>
      </trkpt>
      <trkpt lat="67.34026" lon="22.228512">
        <ele>233.75</ele>
        <time>1970-01-01T01:00:00Z</time>
      </trkpt>
      <trkpt lat="67.34027" lon="22.228737">
        <ele>233.571</ele>
        <time>1970-01-01T01:00:00Z</time>
      </trkpt>
      <trkpt lat="67.3403" lon="22.228748">
        <ele>233.5</ele>
        <time>1970-01-01T01:00:00Z</time>
      </trkpt>
      <trkpt lat="67.340225" lon="22.228554">
        <ele>234.143</ele>
        <time>1970-01-01T01:00:00Z</time>
      </trkpt>
      <trkpt lat="67.340195" lon="22.228325">
        <ele>234.25</ele>
        <time>1970-01-01T01:00:00Z</time>
      </trkpt>
      <trkpt lat="67.340164" lon="22.228134">
        <ele>234.25</ele>
        <time>1970-01-01T01:00:00Z</time>
      </trkpt>
      <trkpt lat="67.34012" lon="22.227926">
        <ele>234.25</ele>
        <time>1970-01-01T01:00:00Z</time>
      </trkpt>
      <trkpt lat="67.34009" lon="22.227707">
        <ele>234.25</ele>
        <time>1970-01-01T01:00:00Z</time>
      </trkpt>
      <trkpt lat="67.34004" lon="22.227524">
        <ele>234.429</ele>
        <time>1970-01-01T01:00:00Z</time>
      </trkpt>
      <trkpt lat="67.340004" lon="22.22739">
        <ele>234.667</ele>
        <time>1970-01-01T01:00:00Z</time>
      </trkpt>
      <trkpt lat="67.34012" lon="22.227606">
        <ele>234.143</ele>
        <time>1970-01-01T01:00:00Z</time>
      </trkpt>
      <trkpt lat="67.34015" lon="22.227818">
        <ele>234</ele>
        <time>1970-01-01T01:00:00Z</time>
      </trkpt>
      <trkpt lat="67.34018" lon="22.228025">
        <ele>234</ele>
        <time>1970-01-01T01:00:00Z</time>
      </trkpt>
      <trkpt lat="67.34022" lon="22.228235">
        <ele>234</ele>
        <time>1970-01-01T01:00:00Z</time>
      </trkpt>
      <trkpt lat="67.340256" lon="22.228455">
        <ele>234</ele>
        <time>1970-01-01T01:00:00Z</time>
      </trkpt>
      <trkpt lat="67.34029" lon="22.228657">
        <ele>233.857</ele>
        <time>1970-01-01T01:00:00Z</time>
      </trkpt>
      <trkpt lat="67.34034" lon="22.228735">
        <ele>233.667</ele>
        <time>1970-01-01T01:00:00Z</time>
      </trkpt>
      <trkpt lat="67.34028" lon="22.228868">
        <ele>233</ele>
        <time>1970-01-01T01:00:00Z</time>
      </trkpt>
      <trkpt lat="67.34034" lon="22.22874">
        <ele>233</ele>
        <time>1970-01-01T01:00:00Z</time>
      </trkpt>
      <trkpt lat="67.34035" lon="22.228746">
        <ele>233</ele>
        <time>1970-01-01T01:00:00Z</time>
      </trkpt>
      <trkpt lat="67.34033" lon="22.22874">
        <ele>233</ele>
        <time>1970-01-01T01:00:00Z</time>
      </trkpt>
      <trkpt lat="67.34028" lon="22.228632">
        <ele>233.857</ele>
        <time>1970-01-01T01:00:00Z</time>
      </trkpt>
      <trkpt lat="67.340256" lon="22.228424">
        <ele>233.875</ele>
        <time>1970-01-01T01:00:00Z</time>
      </trkpt>
      <trkpt lat="67.340225" lon="22.228199">
        <ele>233.889</ele>
        <time>1970-01-01T01:00:00Z</time>
      </trkpt>
      <trkpt lat="67.34018" lon="22.228">
        <ele>233.9</ele>
        <time>1970-01-01T01:00:00Z</time>
      </trkpt>
      <trkpt lat="67.34016" lon="22.227785">
        <ele>233.909</ele>
        <time>1970-01-01T01:00:00Z</time>
      </trkpt>
      <trkpt lat="67.340126" lon="22.227562">
        <ele>234</ele>
        <time>1970-01-01T01:00:00Z</time>
      </trkpt>
      <trkpt lat="67.340195" lon="22.227402">
        <ele>234.1</ele>
        <time>1970-01-01T01:00:00Z</time>
      </trkpt>
      <trkpt lat="67.34026" lon="22.22729">
        <ele>234.111</ele>
        <time>1970-01-01T01:00:00Z</time>
      </trkpt>
      <trkpt lat="67.340256" lon="22.22706">
        <ele>234.125</ele>
        <time>1970-01-01T01:00:00Z</time>
      </trkpt>
      <trkpt lat="67.34025" lon="22.227268">
        <ele>234.143</ele>
        <time>1970-01-01T01:00:00Z</time>
      </trkpt>
      <trkpt lat="67.34026" lon="22.227276">
        <ele>234.167</ele>
        <time>1970-01-01T01:00:00Z</time>
      </trkpt>
      <trkpt lat="67.34032" lon="22.22717">
        <ele>234</ele>
        <time>1970-01-01T01:00:00Z</time>
      </trkpt>
      <trkpt lat="67.340324" lon="22.226942">
        <ele>234</ele>
        <time>1970-01-01T01:00:00Z</time>
      </trkpt>
      <trkpt lat="67.34035" lon="22.226734">
        <ele>234</ele>
        <time>1970-01-01T01:00:00Z</time>
      </trkpt>
      <trkpt lat="67.34035" lon="22.226522">
        <ele>234</ele>
        <time>1970-01-01T01:00:00Z</time>
      </trkpt>
      <trkpt lat="67.34035" lon="22.22652">
        <ele>234</ele>
        <time>1970-01-01T01:00:00Z</time>
      </trkpt>
      <trkpt lat="67.34033" lon="22.226759">
        <ele>234</ele>
        <time>1970-01-01T01:00:00Z</time>
      </trkpt>
      <trkpt lat="67.34032" lon="22.226974">
        <ele>234</ele>
        <time>1970-01-01T01:00:00Z</time>
      </trkpt>
      <trkpt lat="67.34032" lon="22.227213">
        <ele>234</ele>
        <time>1970-01-01T01:00:00Z</time>
      </trkpt>
      <trkpt lat="67.34025" lon="22.227322">
        <ele>234</ele>
        <time>1970-01-01T01:00:00Z</time>
      </trkpt>
      <trkpt lat="67.34025" lon="22.227308">
        <ele>234</ele>
        <time>1970-01-01T01:00:00Z</time>
      </trkpt>
      <trkpt lat="67.34032" lon="22.227198">
        <ele>234</ele>
        <time>1970-01-01T01:00:00Z</time>
      </trkpt>
      <trkpt lat="67.34032" lon="22.227123">
        <ele>234</ele>
        <time>1970-01-01T01:00:00Z</time>
      </trkpt>
      <trkpt lat="67.34025" lon="22.227314">
        <ele>234.4</ele>
        <time>1970-01-01T01:00:00Z</time>
      </trkpt>
      <trkpt lat="67.34018" lon="22.227413">
        <ele>234.4</ele>
        <time>1970-01-01T01:00:00Z</time>
      </trkpt>
      <trkpt lat="67.34012" lon="22.227554">
        <ele>234.4</ele>
        <time>1970-01-01T01:00:00Z</time>
      </trkpt>
      <trkpt lat="67.340126" lon="22.22764">
        <ele>234.4</ele>
        <time>1970-01-01T01:00:00Z</time>
      </trkpt>
      <trkpt lat="67.34017" lon="22.22739">
        <ele>234</ele>
        <time>1970-01-01T01:00:00Z</time>
      </trkpt>
      <trkpt lat="67.340256" lon="22.227299">
        <ele>234</ele>
        <time>1970-01-01T01:00:00Z</time>
      </trkpt>
      <trkpt lat="67.34029" lon="22.227243">
        <ele>234</ele>
        <time>1970-01-01T01:00:00Z</time>
      </trkpt>
      <trkpt lat="67.340164" lon="22.22738">
        <ele>234.143</ele>
        <time>1970-01-01T01:00:00Z</time>
      </trkpt>
      <trkpt lat="67.34013" lon="22.227581">
        <ele>234</ele>
        <time>1970-01-01T01:00:00Z</time>
      </trkpt>
      <trkpt lat="67.34015" lon="22.227787">
        <ele>233.889</ele>
        <time>1970-01-01T01:00:00Z</time>
      </trkpt>
      <trkpt lat="67.34017" lon="22.227995">
        <ele>233.889</ele>
        <time>1970-01-01T01:00:00Z</time>
      </trkpt>
      <trkpt lat="67.3402" lon="22.228212">
        <ele>233.889</ele>
        <time>1970-01-01T01:00:00Z</time>
      </trkpt>
      <trkpt lat="67.34023" lon="22.22843">
        <ele>233.875</ele>
        <time>1970-01-01T01:00:00Z</time>
      </trkpt>
      <trkpt lat="67.340256" lon="22.228636">
        <ele>233.857</ele>
        <time>1970-01-01T01:00:00Z</time>
      </trkpt>
      <trkpt lat="67.340294" lon="22.228731">
        <ele>233.667</ele>
        <time>1970-01-01T01:00:00Z</time>
      </trkpt>
      <trkpt lat="67.34023" lon="22.228432">
        <ele>234.143</ele>
        <time>1970-01-01T01:00:00Z</time>
      </trkpt>
      <trkpt lat="67.34022" lon="22.228226">
        <ele>234.125</ele>
        <time>1970-01-01T01:00:00Z</time>
      </trkpt>
      <trkpt lat="67.34017" lon="22.228025">
        <ele>234.111</ele>
        <time>1970-01-01T01:00:00Z</time>
      </trkpt>
      <trkpt lat="67.34015" lon="22.227802">
        <ele>234.1</ele>
        <time>1970-01-01T01:00:00Z</time>
      </trkpt>
      <trkpt lat="67.34013" lon="22.227577">
        <ele>234.1</ele>
        <time>1970-01-01T01:00:00Z</time>
      </trkpt>
      <trkpt lat="67.340195" lon="22.227407">
        <ele>234.111</ele>
        <time>1970-01-01T01:00:00Z</time>
      </trkpt>
      <trkpt lat="67.34026" lon="22.227295">
        <ele>234.125</ele>
        <time>1970-01-01T01:00:00Z</time>
      </trkpt>
      <trkpt lat="67.34035" lon="22.227327">
        <ele>234.143</ele>
        <time>1970-01-01T01:00:00Z</time>
      </trkpt>
      <trkpt lat="67.34038" lon="22.22752">
        <ele>234.167</ele>
        <time>1970-01-01T01:00:00Z</time>
      </trkpt>
      <trkpt lat="67.34038" lon="22.22754">
        <ele>234</ele>
        <time>1970-01-01T01:00:00Z</time>
      </trkpt>
      <trkpt lat="67.34037" lon="22.227522">
        <ele>234</ele>
        <time>1970-01-01T01:00:00Z</time>
      </trkpt>
      <trkpt lat="67.34033" lon="22.22734">
        <ele>234</ele>
        <time>1970-01-01T01:00:00Z</time>
      </trkpt>
      <trkpt lat="67.34037" lon="22.227253">
        <ele>234</ele>
        <time>1970-01-01T01:00:00Z</time>
      </trkpt>
      <trkpt lat="67.3404" lon="22.227205">
        <ele>234</ele>
        <time>1970-01-01T01:00:00Z</time>
      </trkpt>
      <trkpt lat="67.34041" lon="22.227318">
        <ele>234</ele>
        <time>1970-01-01T01:00:00Z</time>
      </trkpt>
      <trkpt lat="67.34038" lon="22.227003">
        <ele>234</ele>
        <time>1970-01-01T01:00:00Z</time>
      </trkpt>
      <trkpt lat="67.34038" lon="22.227001">
        <ele>234</ele>
        <time>1970-01-01T01:00:00Z</time>
      </trkpt>
      <trkpt lat="67.34035" lon="22.227217">
        <ele>234</ele>
        <time>1970-01-01T01:00:00Z</time>
      </trkpt>
      <trkpt lat="67.34031" lon="22.227402">
        <ele>234</ele>
        <time>1970-01-01T01:00:00Z</time>
      </trkpt>
      <trkpt lat="67.340294" lon="22.227415">
        <ele>234</ele>
        <time>1970-01-01T01:00:00Z</time>
      </trkpt>
      <trkpt lat="67.34036" lon="22.22724">
        <ele>234</ele>
        <time>1970-01-01T01:00:00Z</time>
      </trkpt>
      <trkpt lat="67.34036" lon="22.227213">
        <ele>234</ele>
        <time>1970-01-01T01:00:00Z</time>
      </trkpt>
      <trkpt lat="67.34031" lon="22.227415">
        <ele>234</ele>
        <time>1970-01-01T01:00:00Z</time>
      </trkpt>
      <trkpt lat="67.34033" lon="22.227306">
        <ele>234</ele>
        <time>1970-01-01T01:00:00Z</time>
      </trkpt>
      <trkpt lat="67.34023" lon="22.227297">
        <ele>234</ele>
        <time>1970-01-01T01:00:00Z</time>
      </trkpt>
      <trkpt lat="67.34017" lon="22.22732">
        <ele>234</ele>
        <time>1970-01-01T01:00:00Z</time>
      </trkpt>
      <trkpt lat="67.34031" lon="22.227365">
        <ele>234</ele>
        <time>1970-01-01T01:00:00Z</time>
      </trkpt>
      <trkpt lat="67.340225" lon="22.22733">
        <ele>234</ele>
        <time>1970-01-01T01:00:00Z</time>
      </trkpt>
      <trkpt lat="67.340225" lon="22.2271">
        <ele>234</ele>
        <time>1970-01-01T01:00:00Z</time>
      </trkpt>
      <trkpt lat="67.34031" lon="22.22723">
        <ele>234</ele>
        <time>1970-01-01T01:00:00Z</time>
      </trkpt>
      <trkpt lat="67.34031" lon="22.227251">
        <ele>234</ele>
        <time>1970-01-01T01:00:00Z</time>
      </trkpt>
      <trkpt lat="67.34029" lon="22.227444">
        <ele>234</ele>
        <time>1970-01-01T01:00:00Z</time>
      </trkpt>
      <trkpt lat="67.34027" lon="22.227333">
        <ele>234</ele>
        <time>1970-01-01T01:00:00Z</time>
      </trkpt>
      <trkpt lat="67.34021" lon="22.227335">
        <ele>234</ele>
        <time>1970-01-01T01:00:00Z</time>
      </trkpt>
      <trkpt lat="67.34019" lon="22.227322">
        <ele>234</ele>
        <time>1970-01-01T01:00:00Z</time>
      </trkpt>
      <trkpt lat="67.340126" lon="22.227365">
        <ele>234.714</ele>
        <time>1970-01-01T01:00:00Z</time>
      </trkpt>
      <trkpt lat="67.34009" lon="22.227566">
        <ele>234.5</ele>
        <time>1970-01-01T01:00:00Z</time>
      </trkpt>
      <trkpt lat="67.34011" lon="22.22778">
        <ele>234.333</ele>
        <time>1970-01-01T01:00:00Z</time>
      </trkpt>
      <trkpt lat="67.340126" lon="22.227999">
        <ele>234.333</ele>
        <time>1970-01-01T01:00:00Z</time>
      </trkpt>
      <trkpt lat="67.340164" lon="22.228205">
        <ele>234.333</ele>
        <time>1970-01-01T01:00:00Z</time>
      </trkpt>
      <trkpt lat="67.3402" lon="22.22841">
        <ele>234.25</ele>
        <time>1970-01-01T01:00:00Z</time>
      </trkpt>
      <trkpt lat="67.340225" lon="22.228634">
        <ele>234.143</ele>
        <time>1970-01-01T01:00:00Z</time>
      </trkpt>
      <trkpt lat="67.34025" lon="22.228827">
        <ele>234</ele>
        <time>1970-01-01T01:00:00Z</time>
      </trkpt>
      <trkpt lat="67.3402" lon="22.228855">
        <ele>233</ele>
        <time>1970-01-01T01:00:00Z</time>
      </trkpt>
      <trkpt lat="67.3402" lon="22.228895">
        <ele>233</ele>
        <time>1970-01-01T01:00:00Z</time>
      </trkpt>
      <trkpt lat="67.340256" lon="22.228683">
        <ele>233</ele>
        <time>1970-01-01T01:00:00Z</time>
      </trkpt>
      <trkpt lat="67.34028" lon="22.228584">
        <ele>233</ele>
        <time>1970-01-01T01:00:00Z</time>
      </trkpt>
      <trkpt lat="67.34023" lon="22.228472">
        <ele>234</ele>
        <time>1970-01-01T01:00:00Z</time>
      </trkpt>
      <trkpt lat="67.340225" lon="22.228422">
        <ele>234</ele>
        <time>1970-01-01T01:00:00Z</time>
      </trkpt>
      <trkpt lat="67.340195" lon="22.22827">
        <ele>234.571</ele>
        <time>1970-01-01T01:00:00Z</time>
      </trkpt>
      <trkpt lat="67.34015" lon="22.22806">
        <ele>234.571</ele>
        <time>1970-01-01T01:00:00Z</time>
      </trkpt>
      <trkpt lat="67.34012" lon="22.22785">
        <ele>234.571</ele>
        <time>1970-01-01T01:00:00Z</time>
      </trkpt>
      <trkpt lat="67.34009" lon="22.227642">
        <ele>234.571</ele>
        <time>1970-01-01T01:00:00Z</time>
      </trkpt>
      <trkpt lat="67.34004" lon="22.22745">
        <ele>234.571</ele>
        <time>1970-01-01T01:00:00Z</time>
      </trkpt>
      <trkpt lat="67.34" lon="22.227346">
        <ele>234.667</ele>
        <time>1970-01-01T01:00:00Z</time>
      </trkpt>
      <trkpt lat="67.3401" lon="22.227295">
        <ele>234.5</ele>
        <time>1970-01-01T01:00:00Z</time>
      </trkpt>
      <trkpt lat="67.340195" lon="22.227262">
        <ele>234.5</ele>
        <time>1970-01-01T01:00:00Z</time>
      </trkpt>
      <trkpt lat="67.34021" lon="22.227215">
        <ele>234.5</ele>
        <time>1970-01-01T01:00:00Z</time>
      </trkpt>
      <trkpt lat="67.34027" lon="22.227196">
        <ele>234</ele>
        <time>1970-01-01T01:00:00Z</time>
      </trkpt>
      <trkpt lat="67.34027" lon="22.22698">
        <ele>234</ele>
        <time>1970-01-01T01:00:00Z</time>
      </trkpt>
      <trkpt lat="67.34029" lon="22.226765">
        <ele>234</ele>
        <time>1970-01-01T01:00:00Z</time>
      </trkpt>
      <trkpt lat="67.34031" lon="22.226545">
        <ele>234</ele>
        <time>1970-01-01T01:00:00Z</time>
      </trkpt>
      <trkpt lat="67.34029" lon="22.22649">
        <ele>234</ele>
        <time>1970-01-01T01:00:00Z</time>
      </trkpt>
      <trkpt lat="67.34023" lon="22.226665">
        <ele>234</ele>
        <time>1970-01-01T01:00:00Z</time>
      </trkpt>
      <trkpt lat="67.34024" lon="22.226898">
        <ele>234</ele>
        <time>1970-01-01T01:00:00Z</time>
      </trkpt>
      <trkpt lat="67.340225" lon="22.227106">
        <ele>234</ele>
        <time>1970-01-01T01:00:00Z</time>
      </trkpt>
      <trkpt lat="67.34019" lon="22.227003">
        <ele>234</ele>
        <time>1970-01-01T01:00:00Z</time>
      </trkpt>
      <trkpt lat="67.34028" lon="22.22727">
        <ele>234</ele>
        <time>1970-01-01T01:00:00Z</time>
      </trkpt>
      <trkpt lat="67.34027" lon="22.22732">
        <ele>234</ele>
        <time>1970-01-01T01:00:00Z</time>
      </trkpt>
      <trkpt lat="67.34035" lon="22.227133">
        <ele>234</ele>
        <time>1970-01-01T01:00:00Z</time>
      </trkpt>
      <trkpt lat="67.34036" lon="22.227146">
        <ele>234</ele>
        <time>1970-01-01T01:00:00Z</time>
      </trkpt>
      <trkpt lat="67.34039" lon="22.227316">
        <ele>234</ele>
        <time>1970-01-01T01:00:00Z</time>
      </trkpt>
      <trkpt lat="67.34036" lon="22.227484">
        <ele>234</ele>
        <time>1970-01-01T01:00:00Z</time>
      </trkpt>
      <trkpt lat="67.34037" lon="22.227522">
        <ele>234</ele>
        <time>1970-01-01T01:00:00Z</time>
      </trkpt>
      <trkpt lat="67.34036" lon="22.227352">
        <ele>234</ele>
        <time>1970-01-01T01:00:00Z</time>
      </trkpt>
      <trkpt lat="67.340355" lon="22.227287">
        <ele>234</ele>
        <time>1970-01-01T01:00:00Z</time>
      </trkpt>
    </trkseg>
  </trk>
</gpx>